Regional Weather Roundup
Issued by NWS Cleveland, OH

Home | Current Version | Previous Version | Graphics & Text | Print | Product List | Glossary On
Versions: 1 2 3 4 5 6 7 8 9 10 11 12 13 14 15 16 17 18 19 20 21 22 23 24 25 26 27 28 29 30 31 32 33 34 35 36 37 38 39 40 41 42 43 44 45 46 47 48 49 50
000
ASUS41 KCLE 311800
RWRCLE
OHIO REGIONAL WEATHER ROUNDUP
NATIONAL WEATHER SERVICE WILMINGTON, OH
200 PM EDT THU JUL 31 2014

NOTE: "FAIR" INDICATES FEW OR NO CLOUDS BELOW 12,000 FEET WITH NO
SIGNIFICANT WEATHER AND/OR OBSTRUCTIONS TO VISIBILITY.

OHZ001>008-015>018-024>027-034-035-043-044-311900-
   NORTHWEST OHIO

CITY           SKY/WX    TMP DP  RH WIND       PRES   REMARKS
DEFIANCE       MOSUNNY   79  56  45 SW7       30.05F
FINDLAY        MOSUNNY   80  55  42 W13       30.06F
TOLEDO EXPRESS SUNNY     80  51  36 W10       30.05F
TOLEDO METCALF SUNNY     79  51  37 W12       30.06S
LIMA           MOSUNNY   78  59  51 SW12G21   30.08F
$$

OHZ009>014-019>023-028>033-038-089-311900-
   NORTHEAST OHIO

CITY           SKY/WX    TMP DP  RH WIND       PRES   REMARKS
CLE-HOPKINS    SUNNY     75  51  43 W7        30.09S
CLE-LAKEFRONT  SUNNY     73  52  47 W10       30.06S
CUY CO. ARPT   SUNNY     75  50  41 NW14      30.09S
LORAIN-ELYRIA  SUNNY     78  53  41 W8G18     30.08F
ASHTABULA      MOSUNNY   73  52  47 W12G18    30.08R
AKRON-CANTON   PTSUNNY   77  56  48 NW9G20    30.09S
WOOSTER        NOT AVBL
MANSFIELD      MOSUNNY   75  56  51 W7        30.10S
YOUNGSTOWN     PTSUNNY   75  53  46 W10G20    30.08S
$$

OHZ042-051>053-060>062-070>072-077>081-311900-
  SOUTHWEST OHIO

CITY           SKY/WX    TMP DP  RH WIND       PRES   REMARKS
CINC-COVINGTON MOSUNNY   80  59  48 W9G21     30.10F
CINC-LUNKEN    SUNNY     82  56  40 NW8       30.09F
HAMILTON       MOSUNNY   80  62  54 NW7       30.10F
DAYTON         NOT AVBL
WRIGHT-PAT AFB NOT AVBL
DAYTON GENERAL MOSUNNY   79  60  52 MISG      30.09F
WILMINGTON     MOSUNNY   78  59  51 W6        30.10F
$$

OHZ036-037-039>041-045>050-054>059-063>069-073>076-082>088-311900-
  CENTRAL AND SOUTHEAST OHIO

CITY           SKY/WX    TMP DP  RH WIND       PRES   REMARKS
COLUMBUS       MOSUNNY   81  56  42 W9        30.08F
OSU AIRPORT    MOSUNNY   79  59  50 W15       30.09S
BOLTON FIELD   MOSUNNY   77  63  61 W10       30.10S
RICKENBACK AFB NOT AVBL
NEWARK         PTSUNNY   77  61  57 W10       30.09S
MARION         MOSUNNY   77  56  48 W12       30.09F
LANCASTER      MOSUNNY   76  61  59 W5        30.10F
ZANESVILLE     MOSUNNY   78  61  55 W9        30.10S
NEW PHILLY     SUNNY     77  62  59 VRB7      30.09F
$$



USA.gov is the U.S. government's official web portal to all federal, state and local government web resources and services.